Regional Weather Roundup
Issued by NWS Upton, NY

Current Version | Previous Version | Text Only | Print | Product List | Glossary Off
Versions: 1 2 3 4 5 6 7 8 9 10 11 12 13 14 15 16 17 18 19 20 21 22 23 24 25 26 27 28 29 30 31 32 33 34 35 36 37 38 39 40 41 42 43 44 45 46 47 48 49 50
000 ASUS41 KOKX 260405 RWROKX REGIONAL WEATHER ROUNDUP NATIONAL WEATHER SERVICE NEW YORK NY 1100 PM EST SUN JAN 25 2015 NOTE: "FAIR" INDICATES FEW OR NO CLOUDS BELOW 12,000 FEET WITH NO SIGNIFICANT WEATHER AND/OR OBSTRUCTIONS TO VISIBILITY. NYZ071-072-176-178-NJZ106-104-260500- NEW YORK CITY METRO AREA CITY SKY/WX TMP DP RH WIND PRES REMARKS CENTRAL PARK CLOUDY 32 9 38 N13 30.00R WCI 22 LAGUARDIA APRT CLOUDY 31 12 45 N12 29.99R WCI 22 KENNEDY INTL CLOUDY 33 10 38 N16 29.98F WCI 23 NEWARK/LIBERTY CLOUDY 30 12 47 N15 29.98F WCI 19 BRNX BOT. GARD N/A N/A N/A N/A S2 29.99F TETERBORO CLOUDY 31 10 41 N9 29.99R WCI 23 $$ NYZ177-179-078>081-260500- LONG ISLAND NEW YORK CITY SKY/WX TMP DP RH WIND PRES REMARKS FARMINGDALE CLOUDY 31 12 45 NE13 29.99R WCI 21 ISLIP CLOUDY 31 13 47 N10 29.98R WCI 22 SHIRLEY CLOUDY 30 13 49 VRB7 30.00R WCI 23 WESTHAMPTON CLOUDY 29 9 43 N10 30.01R WCI 20 MONTAUK POINT N/A 30 7 37 N8 30.01R WCI 22 $$ NYZ052-065-067-260500- HUDSON VALLEY CITY SKY/WX TMP DP RH WIND PRES REMARKS WHITE PLAINS CLOUDY 25 6 44 N12 29.97R WCI 14 NEWBURGH PTCLDY 19 9 63 E12 30.02R WCI 7 MONTGOMERY MOCLDY 21 5 50 NE7 30.01R WCI 12 POUGHKEEPSIE MOCLDY 20 2 45 N6 30.05R WCI 12 ALBANY MOCLDY 14 0 53 NE6 30.08R WCI 5 $$ NJZ001-105-106-008-010-013-015-019>022-104-260500- NEW JERSEY CITY SKY/WX TMP DP RH WIND PRES REMARKS NEWARK/LIBERTY CLOUDY 30 12 47 N15 29.98F WCI 19 TETERBORO CLOUDY 31 10 41 N9 29.99R WCI 23 CALDWELL CLOUDY 29 9 43 NE8 29.99R WCI 21 MORRISTOWN CLOUDY 32 3 29 N7 29.98F WCI 26 SOMERVILLE CLOUDY 31 10 41 N7 29.96S WCI 24 SUSSEX CLOUDY 26 6 42 N5 29.99R WCI 20 ANDOVER N/A 25 7 46 VRB3 29.96F TRENTON CLOUDY 32 16 51 NE9 29.96R WCI 24 MILLVILLE CLOUDY 40 32 73 NE7 29.92R ATLANTIC CITY CLOUDY 39 31 72 NE9 29.94R WCI 33 WRIGHTSTOWN FLURRIES 34 21 59 NE9 29.94S WCI 26 TOMS RIVER CLOUDY 34 21 60 NE10 29.96S WCI 26 BELMAR CLOUDY 34 12 40 NE10 29.98R WCI 26 $$ PAZ047>061-062-071-260500- EASTERN PENNSYLVANIA CITY SKY/WX TMP DP RH WIND PRES REMARKS PHILADELPHIA FLURRIES 35 28 75 E10 29.96R WCI 27 ALLENTOWN CLOUDY 30 16 56 NE10 29.97R WCI 21 SCRANTON CLOUDY 21 6 52 N8 29.97R WCI 11 $$ CTZ002-004>006-009-010-012-RIZ004-006-007-MAZ004-011-015-260500- SOUTHERN NEW ENGLAND IN CT CITY SKY/WX TMP DP RH WIND PRES REMARKS BRADLEY INTL PTCLDY 18 3 52 W6 30.03R WCI 10 HARTFORD MOCLDY 21 3 45 NW8 30.04R WCI 11 DANBURY MOCLDY 21 -1 38 NE6 30.02R WCI 13 WTRBRY/OXFORD MOCLDY 18 -2 41 N14 29.99R WCI 4 BRIDGEPORT CLOUDY 26 7 44 N14 30.03R WCI 14 MERIDEN MOCLDY 21 3 45 N6 30.04R WCI 13 NEW HAVEN CLOUDY 24 3 40 N10 30.03R WCI 14 CHESTER FAIR 23 3 42 N8 30.01R WCI 14 GROTON MOCLDY 24 5 44 N13 30.01R WCI 12 WILLIMANTIC PTCLDY 20 4 50 N5 30.01R WCI 13 IN RI CITY SKY/WX TMP DP RH WIND PRES REMARKS PROVIDENCE MOCLDY 23 7 50 W6 30.01R WCI 16 BLOCK ISLAND CLOUDY 28 9 43 N13G18 29.97R WCI 18 WESTERLY MOCLDY 26 4 38 N8 30.02R WCI 18 IN MA CITY SKY/WX TMP DP RH WIND PRES REMARKS BOSTON PTCLDY 22 5 48 NW12 30.01R WCI 10 WORCESTER PTCLDY 16 2 54 NW3 29.94R WESTFIELD MOCLDY 13 1 59 S3 30.03R PROVINCETOWN CLEAR 27 9 46 NW21G29 29.98R WCI 13 NANTUCKET MOCLDY 30 12 47 NW9 29.97R WCI 22 $$ ANZ330-335-338-340-345-350-353-355-260500- COASTAL MARINE OBSERVATIONS STATION/POSITION TIME SKY/WX TEMP WIND PRES VSBY WAVE AIR SEA DIR/SP/G HT/PER (UTC) (F) (DEG/KT/KT) (MB) (MI) (FT/S) NY HARB ENTRANCE 0400 35 42 20/ 16/ 17 1014.3 2/11 4S FIRE IS 0400 39 N/A 3/11 20S FIRE ISLAND 0300 41 1014.6 3/11 23SW MTP 0400 N/A 4/11 HUDSON CANYON NOT AVBL EXECUTION ROCKS 0400 32 35 30/ 16/ 19 N/A WESTERN LI SOUND 0400 30 30/ 12/ 16 N/A 0 CENTRAL LI SOUND 0300 28 36 340/ 14/ 17 N/A 2/ 3 EASTERN LI SOUND NOT AVBL ROBBINS REEF 0400 31 10/ 17/ 20 1013.7 $$ >>>>>>>>>>>>>>>>>>>>>>>>>>>> KEY <<<<<<<<<<<<<<<<<<<<<<<<<<< > < > SKY/WX - SKY CONDITION/PRESENT WEATHER < > TMP - TEMPERATURE IN FAHRENHEIT < > DP - DEWPOINT IN FAHRENHEIT < > RH - RELATIVE HUMIDITY IN PERCENT < > WIND - DIRECTION AND SPEED IN MPH < > PRES - MEAN SEA LEVEL PRESSURE IN INCHES OF HG < > WCI - WIND CHILL INDEX < > VSB - VISIBILITY IN MILES < > HX - HEAT INDEX < > TC - TEMPERATURE IN CELSIUS < > VRB - VARIABLE WIND DIRECTION < > < >>>>>>>>>>>>>>>>>>>>>>>>>>>> KEY <<<<<<<<<<<<<<<<<<<<<<<<<<<

USA.gov is the U.S. government's official web portal to all federal, state and local government web resources and services.